Location: Ferchesar
(52.6477°N, 12.4298°E)
Time: 16:49:47
(UTC+01:00)

Explorer 7 - Pass Details

Date: 13 December 2021
Orbit: 483 x 674 km, 50.3° (Epoch: 23 January)

Event Time Altitude Azimuth Distance (km) Brightness Sun altitude
Rises 05:09:37 0° 263° (W) 2,882 - -26.4°
Reaches altitude 10° 05:12:00 10° 260° (W) 1,945 - -26.0°
Maximum altitude 05:16:24 65° 180° (S) 635 - -25.4°
Exits shadow 05:16:54 59° 141° (SE) 665 7.3 -25.3°
Drops below altitude 10° 05:20:31 10° 98° (E) 1,823 10.5 -24.8°
Sets 05:22:42 0° 96° (E) 2,685 11.8 -24.4°
